This is the latest recevied weather packets stored in our database for station/object K6LCM-13. If no packets are shown the sender has not sent any weather packets the latest 10 day(s).
| Time | Temp. | Humidity | Pressure | Rain* | Wind** | Luminosity | Snow |
|---|---|---|---|---|---|---|---|
| 1777571865 | 18.33° C | 79% | 1013.3 hPa | 0 mm | - | - | - |
| 1777571325 | 18.33° C | 79% | 1013.4 hPa | 0 mm | - | - | - |
| 1777570784 | 17.78° C | 80% | 1013.4 hPa | 0 mm | - | - | - |
| 1777570245 | 18.33° C | 80% | 1013.5 hPa | 0 mm | - | - | - |
| 1777569704 | 17.78° C | 81% | 1013.5 hPa | 0 mm | - | - | - |
| 1777569165 | 17.22° C | 82% | 1013.4 hPa | 0 mm | - | - | - |
| 1777567973 | 17.78° C | 81% | 1013.3 hPa | 0 mm | - | - | - |
| 1777567432 | 17.22° C | 80% | 1013.3 hPa | 0 mm | - | - | - |
| 1777566352 | 17.22° C | 83% | 1013.5 hPa | 0 mm | - | - | - |
| 1777565812 | 16.67° C | 85% | 1013.4 hPa | 0 mm | - | - | - |
| 1777565273 | 16.67° C | 85% | 1013.3 hPa | 0 mm | - | - | - |
| 1777564674 | 16.11° C | 85% | 1013.2 hPa | 0 mm | - | - | - |
| 1777564134 | 16.11° C | 88% | 1013.1 hPa | 0 mm | - | - | - |
| 1777563594 | 15.56° C | 88% | 1013.1 hPa | 0 mm | - | - | - |
| 1777563054 | 15.56° C | 87% | 1013.2 hPa | 0 mm | - | - | - |
| 1777562513 | 16.11° C | 88% | 1013.1 hPa | 0 mm | - | - | - |
| 1777561974 | 15.56° C | 89% | 1013.1 hPa | 0 mm | - | - | - |
| 1777561434 | 15.56° C | 90% | 1013.1 hPa | 0 mm | - | - | - |
| 1777560354 | 15° C | 91% | 1013.2 hPa | 0 mm | - | - | - |
| 1777559814 | 14.44° C | 93% | 1013.2 hPa | 0 mm | - | - | - |
| 1777559274 | 13.89° C | 93% | 1013 hPa | 0 mm | - | - | - |
| 1777558734 | 13.89° C | 94% | 1012.9 hPa | 0 mm | - | - | - |
| 1777558194 | 13.33° C | 94% | 1013 hPa | 0 mm | - | - | - |
| 1777557654 | 12.78° C | 94% | 1013 hPa | 0 mm | - | - | - |
| 1777557114 | 12.78° C | 94% | 1013 hPa | 0 mm | - | - | - |
* Rain latest hour (hover to see other rain measurements)
** Current wind speed in m/s (hover to see current wind gust speed)